Regional Weather Roundup
Issued by NWS Upton, NY

Current Version | Previous Version | Graphics & Text | Print | Product List | Glossary Off
Versions: 1 2 3 4 5 6 7 8 9 10 11 12 13 14 15 16 17 18 19 20 21 22 23 24 25 26 27

000
ASUS41 KOKX 151808
RWROKX

REGIONAL WEATHER ROUNDUP
NATIONAL WEATHER SERVICE NEW YORK NY
100 PM EST FRI DEC 15 2017

NOTE: "FAIR" INDICATES FEW OR NO CLOUDS BELOW 12,000 FEET WITH NO
SIGNIFICANT WEATHER AND/OR OBSTRUCTIONS TO VISIBILITY.

NYZ071-072-176-178-NJZ106-104-151900-
NEW YORK CITY METRO AREA

CITY           SKY/WX    TMP DP  RH WIND       PRES   REMARKS
Central Park   CLOUDY    27  12  53 W3        30.01F
Bronx Bot Gard   N/A     30  14  51 CALM      30.02F
Bronx Lehman C   N/A     28  14  54 W3          N/A
LaGuardia APRT CLOUDY    29  12  49 S5        30.00F WCI  24
Queens College   N/A     28  14  54 SW7         N/A  WCI  21
Kennedy INTL   CLOUDY    27  16  63 CALM      30.02F
Breezy Point     N/A    N/A N/A N/A S1          N/A
Brooklyn Coll    N/A     28  12  50 S5          N/A  WCI  23
Staten Island    N/A     27  12  54 SE1         N/A
Newark/Liberty CLOUDY    26  10  50 CALM      30.01F
Teterboro      CLOUDY    26  11  52 VRB3      30.00F
$$

NYZ177-179-078>081-151900-
LONG ISLAND NEW YORK

CITY           SKY/WX    TMP DP  RH WIND       PRES   REMARKS
Jones Beach      N/A    N/A N/A N/A NW3         N/A
Wantagh          N/A     30  18  59 W2          N/A
Matinecock PT    N/A    N/A N/A N/A SW5         N/A
Farmingdale    CLOUDY    29  18  63 CALM      30.01F
MacArthur/ISP  CLOUDY    31  19  61 CALM      30.00F
Shirley        CLOUDY    31  20  63 CALM      30.01F
Mt Sinai Harb    N/A    N/A N/A N/A MISG        N/A
Westhampton    PTSUNNY   29  18  63 SE5       30.02F WCI  24
East Hampton   FAIR      28  18  66 CALM      30.01F
Southold         N/A     28  16  59 E3          N/A
Montauk          N/A     31  18  58 CALM      30.02F
$$

NYZ052-065-067-151900-
HUDSON VALLEY

CITY           SKY/WX    TMP DP  RH WIND       PRES   REMARKS
White Plains   CLOUDY    25  11  55 CALM      29.97F
Larchmont Harb   N/A    N/A N/A N/A S2          N/A
Croton On Huds   N/A    N/A N/A N/A S1          N/A
Somers           N/A     25  12  58 S3          N/A
Brewster         N/A     25  12  58 SW1         N/A
Newburgh       PTSUNNY   21  12  68 CALM      29.98F
Montgomery     CLOUDY    22  11  62 SW6       29.97F WCI  14
Otisville        N/A     21  10  63 SE2         N/A
Warwick          N/A     23  12  63 N3          N/A
Suffern          N/A     25  10  54 S2          N/A
Poughkeepsie   CLOUDY    23  10  57 CALM      30.00F
Albany         PTSUNNY   21   8  57 VRB6      29.98F WCI  13
$$

NJZ001-105-106-008-010-013-015-019>022-104-151900-
NEW JERSEY

CITY           SKY/WX    TMP DP  RH WIND       PRES   REMARKS
Newark/Liberty CLOUDY    26  10  50 CALM      30.01F
Teterboro      CLOUDY    26  11  52 VRB3      30.00F
Caldwell       CLOUDY    25  10  53 CALM      30.01F
Somerville     CLOUDY    25  12  58 CALM      29.99F
Linden         CLOUDY    26  11  52 CALM      30.01F
Perth Amboy      N/A    N/A N/A N/A W1          N/A
Sussex         CLOUDY    23  11  60 CALM      29.96F
Andover        NOT AVBL
Trenton        CLOUDY    26  11  52 CALM      29.99F
Millville      CLOUDY    28  13  53 N7        29.98F WCI  21
Atlantic City  CLOUDY    28  12  51 NE6       29.97F WCI  22
Wrightstown    CLOUDY    26  11  53 N5        29.96F WCI  20
Toms River     CLOUDY    26  12  55 N5        29.99F WCI  20
Belmar         CLOUDY    25  11  55 NW5       30.00  WCI  19
$$

PAZ047>061-062-071-151900-
EASTERN PENNSYLVANIA

CITY           SKY/WX    TMP DP  RH WIND       PRES   REMARKS
Philadelphia   FLURRIES  28  11  48 CALM      30.00F
Allentown      CLOUDY    25  12  58 CALM      29.97F
Scranton       LGT SNOW  19  12  74 CALM      29.92F
$$

CTZ002-004>006-009-010-012-RIZ004-006-007-MAZ004-011-015-151900-
SOUTHERN NEW ENGLAND
 IN CT

CITY           SKY/WX    TMP DP  RH WIND       PRES   REMARKS
Bradley INTL   CLOUDY    22  10  60 S5        30.01F WCI  16
Hartford       CLOUDY    23  11  60 CALM      30.02F
Danbury        PTSUNNY   25  14  63 S5        29.99F WCI  19
Wtrbury/Oxford PTSUNNY   24  13  62 S5        29.97F WCI  18
Norwalk Harbor   N/A    N/A N/A N/A NE2         N/A
Bridgeport     CLOUDY    28  16  60 CALM      30.01F
Meriden        CLOUDY    24  10  55 CALM      30.02F
New Haven      CLOUDY    28  16  60 E5        30.01F WCI  23
Chester        FAIR      25  10  54 E3        29.99F
Groton         CLOUDY    27  11  51 CALM      30.02F
Wilimantic     CLOUDY    24  11  57 CALM      30.02F

 IN RI

CITY           SKY/WX    TMP DP  RH WIND       PRES   REMARKS
Providence     CLOUDY    25  11  55 CALM      30.03F
Block Island   CLOUDY    31  18  58 CALM      30.02F
Westerly       CLOUDY    27  16  63 CALM      30.03F
 IN MA

CITY           SKY/WX    TMP DP  RH WIND       PRES   REMARKS
Boston         CLOUDY    26  11  52 S6        30.02F WCI  19
Worcester      CLOUDY    21   8  57 SW5       29.94F WCI  15
Westfield      CLOUDY    22  11  62 S5        30.00F WCI  16
Provincetown   MOSUNNY   28  18  66 MISG        N/A
Nantucket      MOSUNNY   30  21  69 W5        30.02F WCI  25
$$

ANZ330-335-338-340-345-350-353-355-151900-
COASTAL MARINE OBSERVATIONS


STATION/POSITION TIME  SKY/WX   TEMP    WIND        PRES    VSBY  WAVE
                                AIR SEA DIR/SP/G                  HT/PER
                 (UTC)          (F)     (DEG/KT/KT) (MB)    (MI)  (FT/S)
NY HARB ENTRANCE 1650            30 49  240/  4/  6 1017.1          1/ 8
20 S FIRE ISLAND 1650            34 51  240/ 10/ 12 1017.1          2/ 7
GREAT SOUTH BAY  NOT AVBL
HUDSON CANYON    1650            38 56  260/  8/ 10 1016.8          3/ 9
KINGS POINT      1724            27 42  210/  3/  4 1017.4
EXECUTION ROCKS  1745            28     210/  2/  6   N/A
WESTERN LI SOUND NOT AVBL
CENTRAL LI SOUND NOT AVBL
ROBBINS REEF     1742            25     360/  2/  3 1017.1
$$


>>>>>>>>>>>>>>>>>>>>>>>>>>>> KEY <<<<<<<<<<<<<<<<<<<<<<<<<<<
>                                                          <
>     SKY/WX - Sky Condition/Present Weather               <
>     TMP    - Temperature in Fahrenheit                   <
>     DP     - Dew Point in Fahrenheit                     <
>     RH     - Relative Humidity in Percent                <
>     WIND   - Direction (from) and Speed in MPH           <
>     PRES   - Mean Sea Level Pressure (inches of Hg)      <
>     WCI    - Wind Chill Index                            <
>     VSB    - VISIBILITY IN MILES                         <
>     HX     - HEAT INDEX                                  <
>     TC     - TEMPERATURE IN CELSIUS                      <
>     VRB    - VARIABLE WIND DIRECTION                     <
>                                                          <
>>>>>>>>>>>>>>>>>>>>>>>>>>>> KEY <<<<<<<<<<<<<<<<<<<<<<<<<<<




USA.gov is the U.S. government's official web portal to all federal, state and local government web resources and services.